Погода в Боготоле

Погода в Боготоле : погода сейчас, прогноз погоды и архив. Всё, что Вы хотите узнать о погоде в Боготоле!

Хотите узнать прогноз погоды в Боготоле? Тогда Вам сюда: Погода в Боготоле

Поиск расширенной информации на нашем сайте:

Другие новости

Новости СМИ2

Главная страница сайта

Новости сайта

03.07.2017

Напоминаем, что на нашем специализированном сайте Метеоцентр.Азия вы можете получить высокодетализированные автоматические прогнозы погоды по пунктам России, СНГ и мира в авиационном формате (включающие направление и скорость ветра, видимость, явления погоды, количество и форму облачности, нижнюю и верхнюю границу облачности).


Погода в Боготоле - сегодня

Время (UTC), дата Ветер
(°,м/с) 
Видим.   Явления Облачность Т
(°С)
Тd
(°С)
f(%) Тe
(°С)
Pmin
(гПа)
dP
(гПа)
Po
(мм)
O2
(г/м3)
Тmin Tmax R s Состояние
почвы
09 15.06.18 200 (Ю) 20000 м    10/8 600 м кучево-дожд., средняя 
[Cb cap|As trans]
+16.5 +11.6 73 +21  1010.5  0.1  732  276           
12 15.06.18 140 (ЮВ) 20000 м  в посл. час гроза{ливн. осадки}  10/8 600 м кучево-дожд., средняя 
[Cb cap|As op]
+11.3 +11.3 100 +14  1011.6  0.5  733  281    +16.5     
15 15.06.18 180 (Ю) 10 км  слаб. ливневой дождь  10/10 600 м кучево-дожд. 
[Cb cap]
+11.3 +11.2 99 +15  1012.4  0.7  733  282           
18 15.06.18 160 (Ю) 10 км  дымка{ливн. осадки}  6/6 600 м кучево-дожд. 
[Cb cap]
+11.3 +11.2 99 +15  1011.5  -0.9  733  281           
21 15.06.18 150 (ЮВ) 10 км  дымка  9/9 600 м кучево-дожд. 
[Cb cap]
+11.2 +11.2 100 +15  1011.2  -0.3  732  281           
00 16.06.18 180 (Ю) 10 км  слаб. ливневой дождь  10/10 600 м кучево-дожд. 
[Cb cap]
+11.7 +11.7 100 +17  1011.5  0.4  733  281  +10.3      мокрая 
03 16.06.18 170 (Ю) 10 км  дымка{ливн. осадки}  9/5 600 м кучево-дожд., средняя 
[Cb cap|Ac trans]
+14.6 +13.3 92 +21  1011  -0.1  733  278           
06 16.06.18 150 (ЮВ) 10 км  слаб. ливневой дождь  9/6 600 м кучево-дожд., средняя 
[Cb cap|Ac As]
+15.3 +14.4 94 +24  1011.2  0.3  733  277           
09 16.06.18 110 (В) 20000 м  {ливн. осадки}  9/4 600 м кучево-дожд., средняя, верхняя 
[Cb cap|Ac trans|Ci fib]
+18.3 +18 98 +34  1010.6  -0.2  733  272           
12 16.06.18 110 (В) 20000 м  {ливн. осадки}  9/6 2000 м средняя, верхняя 
[Ac lent|Ci fib]
+18.7 +18.6 99 +35  1010.1  -0.4  732  272    +20.3     
15 16.06.18 060 (СВ) 20000 м  гроза без осадков{ливн. осадки}  9/9 600 м кучево-дожд. 
[Cb cap]
+13.8 +13.3 97 +20  1011.7  0.8  733  278           
18 16.06.18 150 (ЮВ) 10 км  слаб. ливневой дождь{гроза}  9/8 600 м кучево-дожд., верхняя 
[Cb cap|Ci fib]
+14.3 +14.2 99 +22  1011.1  -0.4  733  278           
21 16.06.18 150 (ЮВ) 20000 м  {ливн. осадки}  10/8 600 м кучево-дожд., средняя 
[Cb cap|As op]
+14.2 +14.1 99 +22  1010.4  -0.7  732  278           
00 17.06.18 060 (СВ) 20000 м  {ливн. осадки}  9/8 1000 м верхняя 
[Sc|Ci fib]
+14.8 +13.9 94 +22  1011  0.7  733  277  +13.4      мокрая 
03 17.06.18 120 (ЮВ) 20000 м    9/4 600 м кучево-дожд., средняя, верхняя 
[Cb cap|Ac trans|Ci fib]
+18 +17.8 99 +34  1010.1  -0.5  732  273           
06 17.06.18 160 (Ю) 20000 м    8/3 1000 м средняя, верхняя 
[Cu hum|Ac cast|Ci fib]
+22.4 +15.9 67 +33  1009.5  0.1  732  269           
09 17.06.18 210 (ЮЗ) 20000 м    9/4 600 м кучево-дожд., средняя, верхняя 
[Cb cap|Ac trans|Ci fib]
+24.7 +12.1 45 +29  1009.2  -0.2  732  268           
12 17.06.18 270 (З) 20000 м    6/3 1000 м верхняя 
[Cu med, cong|Ci fib]
+24.4 +12.7 48 +30  1008.8  -0.4  732  268    +25       
15 17.06.18 тихо ()   10 км  дымка  6/6 2000 м средняя 
[Ac trans]
+16.7 +15.8 94 +27  1009.7  0.1  732  274           
18 17.06.18 060 (СВ) 10 км  дымка  8/0 верхняя 
[Ci fib]
+16.2 +16 99 +29  1009.5  -0.3  732  275           
21 17.06.18 100 (В) 10 км  дымка  8/0 верхняя 
[Ci fib]
+15.4 +15.3 99 +26  1009.2  -0.4  731  276           
00 18.06.18 100 (В) 10 км  дымка  ясно 
+18.6 +17.6 94 +34  1008.3  -0.4  731  272  +11.2        влажная 
03 18.06.18 080 (В) 20000 м    ясно 
+24.5 +16 59 +36  1007  -0.7  731  267           
06 18.06.18 110 (В) 20000 м    4/0 верхняя 
[Ci fib]
+27.5 +12 38 +32  1005.1  -1.6  729  265           
12 18.06.18 070 (В) 5{11}  20000 м    9/5 2000 м средняя, верхняя 
[Ac trans|Ci fib]
+25.9 +12.1 42 +31  1002.7  -0.9  728  265    +28.1       
Время (UTC), дата Ветер
(°,м/с) 
Видим.   Явления Облачность Т
(°С)
Тd
(°С)
f(%) Тe
(°С)
Pmin
(гПа)
dP
(гПа)
Po
(мм)
O2
(г/м3)
Тmin Tmax R s Состояние
почвы

Для получения пояснительной информации подведите курсор к названию столбца.

ПОГОДА в Боготоле - архив

Всё, что Вы хотите узнать о погоде в Боготоле - удобно и подробно!

Выберите нужную дату (начиная с 1 января 2015* года) и нажмите кнопку "Найти".
Будут отображены архивные сводки погоды по пункту Боготол, начиная с указанной даты.


Отображать данные в формате CSV (для использования в таблицах Excel)


Внимание! Наш архив погоды предназначен исключительно для личного некоммерческого использования в познавательных целях. Если Вам необходимы официальные справки о состоянии погоды (для производственных, юридических, коммерческих и т.п. целей), обращайтесь в органы Росгидромета.

*Примечание: данная дата относится к архиву по метеостанциям СССР (Россия, СНГ, Балтия).
Архив по метеостанциям Зарубежной Европы и Азии (кроме Китая) хранится 10 дней, по другим регионам земного шара (Китай, Африка, Америка, Австралия, Океания) - 1 день.

Боготол - район местоположения метеостанции


Название, широта, долгота, высота метеостанции:
Боготол 56.2°ш. 89.6°д. 291 м над ур. моря [Российская Федерация]

Дополнительная информация

В oтличие oт бoльшинства пoгoдных сайтoв мы публикуем пoдрoбную метеoинфoрмацию в детальнoм прoфессиoнальнoм фoрмате.

Характеристики температуры и влажнoсти вoздуха измеряются на высoте 2 м в тени вдали oт зданий и деревьев.
Скoрoсть ветра измеряется на высoте 10 м (на урoвне рoста челoвека скoрoсть ветра ниже в 1.5-2 раза). Если метеoстанция нахoдится в гoрoде или в лесу, тo скoрoсть ветра занижена на 2-4 м/с пo сравнению с oткрытым местoм. Скoрoсть ветра над акватoриями крупных рек и oзёр, а также на вершинах хoлмoв на 2-5 м/с выше, чем в oбычных услoвиях.
Атмoсфернoе давление в разных тoчках местнoсти мoжет значительнo oтличаться oт давления на метеoстанции, в зависимoсти oт услoвий рельефа (при пoдъёме на 10 м давление пoнижается примернo на 1 мм рт.ст.).